Weather Roundup
Issued by NWS

Home | Current Version | Previous Version | Text Only | Print | Product List | Glossary On
Versions: 1 2 3 4 5 6 7 8 9 10 11 12 13 14 15 16 17 18 19 20 21 22 23 24 25 26 27 28 29 30 31 32 33 34 35 36 37 38 39 40 41 42 43 44 45 46 47 48 49 50
752
NZUS93 KARX 202010
HRRWXR

CURRENT HOURLY OBSERVATIONS ACROSS
MUCH OF THE UPPER MISSISSIPPI VALLEY
NATIONAL WEATHER SERVICE LA CROSSE WI
200 PM CST FRI JAN 20 2017


...SOUTHEAST MINNESOTA...


CITY           SKY/WX    TMP DP  RH WIND       PRES   REMARKS
ROCHESTER      CLOUDY    34  34 100 S6        29.54F FOG     WCI  29
ROCHESTER/MAYO CLOUDY    36  36 100 SE6       29.55S WCI  31
WINONA         FOG       36  36 100 SE7       29.59S VSB 1/2 WCI  30
AUSTIN         FOG       34  34 100 CALM      29.53F VSB<1/4
ALBERT LEA     FOG       36  36 100 S6        29.52S VSB 1   WCI  31
DODGE CENTER   FOG       34  34 100 CALM      29.53F VSB<1/4
PRESTON        FOG       35  34  96 SE6       29.54F VSB 1/2 WCI  30
OWATONNA       CLOUDY    36  34  93 SE5       29.52F FOG     WCI  32
FARIBAULT        N/A     36  36 100 SE3       29.54S FOG
$$

...ELSEWHERE IN MINNESOTA...


CITY           SKY/WX    TMP DP  RH WIND       PRES   REMARKS
MINNEAPOLIS    CLOUDY    37  34  89 SE6       29.55F WCI  32
INTNL FALLS    CLOUDY    38  34  85 SE10      29.54F WCI  31
DULUTH         LGT RAIN  35  33  92 E16       29.56S FOG     WCI  25
RED WING       FOG       36  36 100 SE7       29.56S VSB 3/4 WCI  30
REDWOOD FALLS  CLOUDY    36  34  92 SE9       29.48F WCI  29
MANKATO        CLOUDY    36  35  96 SE8       29.52F FOG     WCI  30
WORTHINGTON    FOG       37  37 100 SE13      29.45F VSB 3/4 WCI  29
FAIRMONT       CLOUDY    36  35  96 S10       29.52R FOG     WCI  28
$$

...SOUTHWEST WISCONSIN...


CITY           SKY/WX    TMP DP  RH WIND       PRES   REMARKS
LA CROSSE      CLOUDY    41  37  86 E3        29.57F FOG
PRAIRIE DU CHI CLOUDY    38  37  97 CALM      29.57F FOG
BOSCOBEL       CLOUDY    39  37  92 NE6       29.57F FOG     WCI  35
LONE ROCK      FOG       37  36  96 E8        29.59F VSB 3/4 WCI  31
PLATTEVILLE    CLOUDY    38  38 100 E7        29.58S VSB 1/4 WCI  33
FORT MC COY    CLOUDY    36  35  99 E6        29.60F FOG     WCI  31
CAMP DOUGLAS   FOG       36  36 100 E7        29.60S VSB 1   WCI  30
MAUSTON-NEW LI LGT RAIN  36  36  99 E3        29.60F VSB 3/4
VIROQUA        CLOUDY    36  36 100 SE7       29.57F VSB 1/4 WCI  30
WIS DELLS      FOG       35  35  99 E6        29.60F VSB 1   WCI  30
$$

...ELSEWHERE IN WISCONSIN...


CITY           SKY/WX    TMP DP  RH WIND       PRES   REMARKS
MILWAUKEE      FOG       38  37  97 E9        29.63F VSB 1/4 WCI  31
MADISON        FOG       37  36  96 SE8       29.61F VSB 3/4 WCI  31
GREEN BAY      LGT RAIN  35  35 100 NE10      29.65S FOG     WCI  27
EAU CLAIRE     CLOUDY    36  35  96 SE5       29.58F FOG     WCI  32
BLACK RVR FLS  CLOUDY    38  38 100 SE7       29.59F FOG     WCI  32
MEDFORD        DRIZZLE   35  34  96 SE6       29.60R WCI  30
WAUSAU         LGT RAIN  35  34  96 E12       29.60F WCI  27
WIS RAPIDS     CLOUDY    35  35 100 SE7       29.63S FOG     WCI  29
MARSHFIELD     FOG       34  33  96 SE8       29.60R VSB 3/4 WCI  27
RICE LAKE      CLOUDY    36  35  96 SE7       29.59S FOG     WCI  30
$$

...NORTHEAST IOWA...


CITY           SKY/WX    TMP DP  RH WIND       PRES   REMARKS
WATERLOO       CLOUDY    39  38  96 SE5       29.53F FOG
DUBUQUE        FOG       38  38 100 E5        29.57R VSB 1/4 WCI  34
DECORAH        FOG       36  36 100 SE5       29.54F VSB<1/4 WCI  32
MASON CITY     FOG       34  34 100 S7        29.55S VSB 1/4 WCI  28
CHARLES CITY   FOG       36  36 100 S7        29.55R VSB<1/4 WCI  30
OELWEIN        FOG       36  36 100 SE6       29.56R VSB<1/4 WCI  31
$$

...ELSEWHERE IN IOWA...


CITY           SKY/WX    TMP DP  RH WIND       PRES   REMARKS
DES MOINES     CLOUDY    43  41  93 E5        29.54F
IOWA CITY      CLOUDY    42  40  92 S5        29.58S
FORT DODGE     CLOUDY    37  36  93 SE5       29.52F VSB 3/4 WCI  34
MARSHALLTOWN   FOG       38  38 100 SE8       29.54F VSB 1/2 WCI  32
CEDAR RAPIDS   CLOUDY    39  39 100 S7        29.55S FOG     WCI  34
$$

...NORTHERN ILLINOIS...


CITY           SKY/WX    TMP DP  RH WIND       PRES   REMARKS
CHICAGO-OHARE  CLOUDY    42  39  89 NE6       29.60F FOG
CHICAGO-MIDWAY CLOUDY    41  39  93 E5        29.61F FOG
MOLINE         CLOUDY    45  41  86 SE3       29.57S
ROCKFORD       CLOUDY    41  39  93 E7        29.60F FOG
PEORIA         CLOUDY    47  45  93 S8        29.59F
$$

NOTE: "FAIR" INDICATES FEW OR NO CLOUDS BELOW 12,000 FEET WITH NO
SIGNIFICANT WEATHER AND/OR OBSTRUCTIONS TO VISIBILITY. WIND
SPEEDS ARE IN MILES-PER-HOUR.




USA.gov is the U.S. government's official web portal to all federal, state and local government web resources and services.